Flag for Norway Weather past 2 weeks in Lillestrøm, Norway

Now
40 °F

Quite cool.


Feels Like: 36 °F
Forecast: 32 / 43 °F
Wind: 6 mph from Northwest

Location: Oslo-Blindern

Current Time: Apr 1, 2015 at 11:40:04 PM

Latest Report: Apr 1, 2015 at 10:00 PM


Visibility: N/A

Pressure: 29.41 "Hg

Humidity: 52%

Dew point: 24 °F

Location of LillestrømLocation

Historic Weather in Lillestrøm — Graph

°F

Lillestrøm temperature yesterday

Maximum temperature yesterday: 46 °F (at 4:00 PM)
Minimum temperature yesterday: 27 °F (at 7:00 AM)
Average temperature yesterday: 37 °F

Past Weeks' High & Low Weather Summary

 TemperatureHumidityPressure
High51 °F (Mar 24, 2:00 PM)100% (Mar 20, 2:00 AM)30.63 "Hg (Mar 20, 2:00 AM)
Low27 °F (Mar 22, 2:00 AM)24% (Mar 21, 4:00 PM)28.94 "Hg (Mar 30, 3:00 AM)
Average37 °F77%29.77 "Hg
* Reported Mar 17 9:00 PM — Apr 1 10:00 PM, Lillestrøm, Weather by CustomWeather, © 2015

Note: Actual official high and low records may vary slightly from our data, if they occured in-between our weather recording intervals... More about our weather records

Advertising

Lillestrøm weather history for previous 24 hours

 ConditionsComfort  
Time TempWeatherWind HumidityBarometerVisibility
10:00 PM
Wed, Apr 1
40 °FQuite cool.6 mph52%29.41 "HgN/A
9:00 PM41 °FQuite cool.3 mph53%29.38 "HgN/A
8:00 PM41 °FOvercast.2 mph51%29.38 "Hg43 mi
7:00 PM41 °FQuite cool.2 mph57%29.38 "HgN/A
6:00 PM42 °FQuite cool.3 mph45%29.35 "HgN/A
5:00 PM45 °FQuite cool.3 mph55%29.32 "HgN/A
4:00 PM41 °FQuite cool.5 mph62%29.32 "HgN/A
3:00 PM49 °FCool.3 mph32%29.29 "HgN/A
2:00 PM46 °FCool.3 mph37%29.29 "HgN/A
1:00 PM47 °FCool.5 mph35%29.26 "HgN/A
12:00 PM45 °FCool.6 mph36%29.26 "HgN/A
11:00 AM43 °FPassing clouds.2 mph51%29.23 "Hg47 mi
10:00 AM39 °FChilly.1 mph63%29.23 "HgN/A
9:00 AM37 °FChilly.1 mph65%29.23 "HgN/A
8:00 AM30 °FPassing clouds.1 mph82%29.21 "Hg47 mi
7:00 AM28 °FChilly.1 mph88%29.21 "HgN/A
6:00 AM29 °FChilly.2 mph85%29.18 "HgN/A
4:00 AM31 °FChilly.2 mph87%29.15 "HgN/A
3:00 AM31 °FChilly.1 mph87%29.15 "HgN/A
2:00 AM32 °FPassing clouds.1 mph85%29.15 "Hg40 mi
1:00 AM34 °FChilly.1 mph81%29.12 "HgN/A
12:00 AM33 °FChilly.1 mph81%29.12 "HgN/A
Weather by CustomWeather, © 2015

See weather overviewHow to use our weather pages